Sturgis, MI

4:16 AM EDT on April 21, 2018 (GMT -0400)
Kirsch Municipal

Weather History for KIRS - January, 2013

Change the Weather History Date:

Sunday, January 13, 2013

  Actual Average (KHAI) Record (KHAI)
Temperature  
Mean Temperature 32 °F -  
Max Temperature 39 °F 30 °F 61 °F (1950)
Min Temperature 23 °F 15 °F -11 °F (1977)
Degree Days  
Heating Degree Days 34    
Moisture  
Dew Point 32 °F    
Average Humidity 95    
Maximum Humidity 100    
Minimum Humidity 86    
Precipitation  
Precipitation 0.00 in - - ()
Sea Level Pressure  
Sea Level Pressure 29.91 in    
Wind  
Wind Speed 9 mph (NW)    
Max Wind Speed 15 mph    
Max Gust Speed 21 mph    
Visibility 5 miles    
Events Rain , Snow    
Averages and records for this station are not official NWS values.
T = Trace of Precipitation, MM = Missing Value Source: NWS Daily Summary

Daily Weather History Graph

Daily Weather History Graph

Search for Another Location

Airport or City:

Astronomy

Jan. 13, 2013 Rise Set
Actual Time 8:07 AM EST 5:34 PM EST
Civil Twilight 7:36 AM EST 6:04 PM EST
Nautical Twilight 7:02 AM EST 6:39 PM EST
Astronomical Twilight 6:28 AM EST 7:12 PM EST
Moon 9:03 AM EST (1/13) 8:14 PM EST (1/13)
Length of Visible Light 10h 28m
Length of Day
9h 26m
Waxing Crescent, 5% of the Moon is Illuminated
Jan 13
Waxing Crescent
Jan 18
First Quarter
Jan 26
Full
Feb 3
Last Quarter
Feb 10
New

Hourly Weather History & Observations

Time (EST) Temp. Windchill Dew Point Humidity Pressure Visibility Wind Dir Wind Speed Gust Speed Precip Events Conditions
12:15 AM 39.2 °F 32.0 °F 37.4 °F 93% 29.81 in 4.0 mi North 11.5 mph 18.4 mph N/A Rain Rain
12:34 AM 39.2 °F 31.6 °F 37.4 °F 93% 29.79 in 5.0 mi North 12.7 mph 18.4 mph N/A Rain Light Rain
12:55 AM 37.4 °F 29.8 °F 35.6 °F 93% 29.80 in 5.0 mi North 11.5 mph 19.6 mph N/A Rain Light Rain
1:15 AM 37.4 °F 29.8 °F 35.6 °F 93% 29.80 in 4.0 mi North 11.5 mph - N/A Rain Rain
1:35 AM 37.4 °F 30.3 °F 35.6 °F 93% 29.80 in 5.0 mi North 10.4 mph 19.6 mph N/A Rain Light Rain
1:55 AM 37.4 °F 30.3 °F 35.6 °F 93% 29.80 in 4.0 mi North 10.4 mph - N/A Rain Rain
2:15 AM 37.4 °F 29.3 °F 35.6 °F 93% 29.80 in 4.0 mi NNE 12.7 mph 20.7 mph N/A Rain Rain
2:35 AM 37.4 °F 31.4 °F 35.6 °F 93% 29.80 in 3.0 mi NNE 8.1 mph 16.1 mph N/A Rain Rain
2:55 AM 35.6 °F 29.2 °F 35.6 °F 100% 29.80 in 2.5 mi NNE 8.1 mph - N/A Rain Rain
3:14 AM 35.6 °F 26.6 °F 35.6 °F 100% 29.83 in 3.0 mi NNW 13.8 mph 17.3 mph N/A Rain Rain
3:35 AM 35.6 °F 27.5 °F 35.6 °F 100% 29.81 in 7.0 mi North 11.5 mph - N/A Rain Light Rain
3:55 AM 35.6 °F 27.5 °F 35.6 °F 100% 29.82 in 5.0 mi NNW 11.5 mph 18.4 mph N/A Rain Light Rain
4:15 AM 35.6 °F 27.1 °F 35.6 °F 100% 29.78 in 7.0 mi NNE 12.7 mph 17.3 mph N/A Rain Light Rain
4:35 AM 35.6 °F 28.0 °F 33.8 °F 93% 29.83 in 10.0 mi North 10.4 mph - N/A   Overcast
4:54 AM 35.6 °F 29.2 °F 33.8 °F 93% 29.81 in 7.0 mi North 8.1 mph - N/A   Drizzle
5:15 AM 35.6 °F 29.2 °F 33.8 °F 93% 29.81 in 5.0 mi North 8.1 mph - N/A   Overcast
5:35 AM 35.6 °F 29.9 °F 33.8 °F 93% 29.80 in 5.0 mi North 6.9 mph - N/A   Overcast
5:54 AM 35.6 °F 30.7 °F 33.8 °F 93% 29.78 in 5.0 mi NE 5.8 mph - N/A   Overcast
6:15 AM 35.6 °F 29.9 °F 33.8 °F 93% 29.82 in 5.0 mi North 6.9 mph - N/A   Overcast
6:35 AM 35.6 °F 30.7 °F 33.8 °F 93% 29.83 in 4.0 mi North 5.8 mph - N/A Rain Light Rain
6:54 AM 35.6 °F 31.7 °F 33.8 °F 93% 29.81 in 4.0 mi NNE 4.6 mph - N/A   Light Drizzle
7:15 AM 35.6 °F - 35.6 °F 100% 29.84 in 4.0 mi Calm Calm - N/A   Overcast
7:35 AM 35.6 °F - 35.6 °F 100% 29.85 in 2.5 mi Calm Calm - N/A   Overcast
7:54 AM 35.6 °F - 35.6 °F 100% 29.86 in 2.5 mi Calm Calm - N/A Rain Light Rain
8:15 AM 35.6 °F 31.7 °F 35.6 °F 100% 29.87 in 2.0 mi West 4.6 mph - N/A   Overcast
8:35 AM 35.6 °F - 35.6 °F 100% 29.88 in 2.0 mi Calm Calm - N/A   Overcast
8:54 AM 35.6 °F 31.7 °F 35.6 °F 100% 29.88 in 2.5 mi WNW 4.6 mph - N/A Snow Light Snow
9:15 AM 35.6 °F 30.7 °F 35.6 °F 100% 29.89 in 2.5 mi West 5.8 mph - N/A   Overcast
9:35 AM 35.6 °F 30.7 °F 35.6 °F 100% 29.90 in 2.5 mi WNW 5.8 mph - N/A   Overcast
10:15 AM 35.6 °F 32.8 °F 35.6 °F 100% 29.90 in 1.5 mi WNW 3.5 mph - N/A   Overcast
10:34 AM 35.6 °F 30.7 °F 35.6 °F 100% 29.92 in 1.8 mi WNW 5.8 mph - N/A   Overcast
10:55 AM 35.6 °F 31.7 °F 35.6 °F 100% 29.91 in 1.8 mi NW 4.6 mph - N/A   Overcast
11:14 AM 35.6 °F 29.9 °F 35.6 °F 100% 29.92 in 1.8 mi WNW 6.9 mph - N/A   Overcast
11:35 AM 35.6 °F 30.7 °F 35.6 °F 100% 29.89 in 2.0 mi NW 5.8 mph - N/A   Overcast
11:55 AM 35.6 °F 28.6 °F 33.8 °F 93% 29.92 in 2.5 mi NW 9.2 mph - N/A   Overcast
12:14 PM 35.6 °F 28.6 °F 33.8 °F 93% 29.92 in 3.0 mi WNW 9.2 mph 16.1 mph N/A   Overcast
12:35 PM 35.6 °F 31.7 °F 33.8 °F 93% 29.90 in 1.5 mi NNW 4.6 mph - N/A   Overcast
12:55 PM 35.6 °F 29.9 °F 35.6 °F 100% 29.88 in 1.8 mi NNW 6.9 mph - N/A   Overcast
1:14 PM 35.6 °F 32.8 °F 35.6 °F 100% 29.86 in 3.0 mi North 3.5 mph - N/A   Overcast
1:54 PM 33.8 °F 25.8 °F 33.8 °F 100% 29.84 in 4.0 mi NNW 10.4 mph - N/A   Overcast
2:15 PM 33.8 °F 25.8 °F 33.8 °F 100% 29.88 in 10.0 mi NW 10.4 mph 17.3 mph N/A   Overcast
2:35 PM 33.8 °F 24.8 °F 32.0 °F 93% 29.90 in 4.0 mi NW 12.7 mph - N/A   Overcast
2:54 PM 32.0 °F 23.0 °F 30.2 °F 93% 29.92 in 1.5 mi NW 11.5 mph 18.4 mph N/A   Overcast
3:15 PM 32.0 °F 24.8 °F 30.2 °F 93% 29.92 in 2.0 mi NNW 8.1 mph - N/A Snow Light Snow
3:35 PM 32.0 °F 23.6 °F 30.2 °F 93% 29.92 in 2.5 mi NNW 10.4 mph - N/A   Overcast
3:54 PM 32.0 °F 26.4 °F 30.2 °F 93% 29.92 in 4.0 mi NNW 5.8 mph - N/A Snow Light Snow
4:15 PM 32.0 °F - 30.2 °F 93% 29.94 in 4.0 mi Calm Calm - N/A   Overcast
4:35 PM 32.0 °F 28.7 °F 30.2 °F 93% 29.93 in 3.0 mi NNW 3.5 mph - N/A   Overcast
4:54 PM 32.0 °F - 30.2 °F 93% 29.94 in 5.0 mi Calm Calm - N/A   Overcast
5:15 PM 32.0 °F - 30.2 °F 93% 29.95 in 4.0 mi Calm Calm - N/A Snow Light Snow
5:35 PM 32.0 °F 28.7 °F 30.2 °F 93% 29.92 in 2.5 mi WNW 3.5 mph - N/A Snow Light Snow
5:54 PM 30.2 °F 25.4 °F 30.2 °F 100% 29.94 in 2.5 mi WNW 4.6 mph - N/A Snow Light Snow
6:15 PM 30.2 °F 24.3 °F 30.2 °F 100% 29.96 in 2.0 mi West 5.8 mph - N/A Snow Light Snow
6:35 PM 30.2 °F 25.4 °F 30.2 °F 100% 29.97 in 2.0 mi West 4.6 mph - N/A Snow Light Snow
6:54 PM 30.2 °F 21.9 °F 30.2 °F 100% 29.99 in 4.0 mi West 9.2 mph - N/A Snow Light Snow
7:15 PM 30.2 °F 21.9 °F 28.4 °F 93% 29.99 in 10.0 mi West 9.2 mph - N/A   Overcast
7:35 PM 30.2 °F 21.9 °F 28.4 °F 93% 29.99 in 10.0 mi WNW 9.2 mph - N/A   Overcast
7:55 PM 28.4 °F 19.1 °F 28.4 °F 100% 30.01 in 10.0 mi WNW 10.4 mph - N/A   Overcast
8:15 PM 28.4 °F 18.5 °F 26.6 °F 93% 30.01 in 10.0 mi WNW 11.5 mph - N/A   Overcast
8:34 PM 28.4 °F 19.1 °F 26.6 °F 93% 30.02 in 10.0 mi WNW 10.4 mph 18.4 mph N/A   Overcast
8:55 PM 28.4 °F 20.4 °F 26.6 °F 93% 30.03 in 7.0 mi WNW 8.1 mph - N/A   Overcast
9:15 PM 28.4 °F 19.7 °F 26.6 °F 93% 30.03 in 7.0 mi WNW 9.2 mph 18.4 mph N/A   Overcast
9:34 PM 28.4 °F 18.5 °F 26.6 °F 93% 30.04 in 7.0 mi West 11.5 mph 19.6 mph N/A   Overcast
9:55 PM 26.6 °F 16.2 °F 24.8 °F 93% 30.05 in 10.0 mi West 11.5 mph 17.3 mph N/A   Overcast
10:14 PM 26.6 °F 17.5 °F 24.8 °F 93% 30.05 in 10.0 mi West 9.2 mph 16.1 mph N/A   Overcast
10:35 PM 26.6 °F 15.7 °F 23.0 °F 86% 30.07 in 10.0 mi West 12.7 mph 19.6 mph N/A   Overcast
10:55 PM 24.8 °F 12.4 °F 21.2 °F 86% 30.08 in 10.0 mi West 15.0 mph 19.6 mph N/A   Overcast
11:14 PM 24.8 °F 14.6 °F 21.2 °F 86% 30.09 in 10.0 mi West 10.4 mph 16.1 mph N/A   Overcast
11:35 PM 24.8 °F 14.0 °F 21.2 °F 86% 30.10 in 10.0 mi WNW 11.5 mph 18.4 mph N/A   Overcast
11:55 PM 23.0 °F 12.4 °F 19.4 °F 86% 30.11 in 10.0 mi WNW 10.4 mph 19.6 mph N/A   Overcast